timestamp,wind_dir_avg,wind_spd_avg,wind_spd_max_dir,wind_spd_gust,battery_voltage,lat,long
2020-11-18 00:04:01+00:00,222.0,6.97,226.0,8.35,12.65,47.59359,-54.27349
2020-11-18 00:14:01+00:00,224.0,5.9,219.0,6.57,12.65,47.59359,-54.27349
2020-11-18 00:24:01+00:00,227.0,5.63,228.0,6.47,12.65,47.59359,-54.27349
2020-11-18 00:34:01+00:00,227.0,6.08,231.0,6.93,12.65,47.59359,-54.27349
2020-11-18 00:44:01+00:00,230.0,5.41,231.0,6.21,12.65,47.59359,-54.27349
2020-11-18 00:54:01+00:00,226.0,5.55,225.0,6.32,12.65,47.59359,-54.27349
2020-11-18 01:04:01+00:00,222.0,6.26,223.0,6.92,12.65,47.59359,-54.27349
2020-11-18 01:14:01+00:00,223.0,8.65,230.0,9.51,12.57,47.59359,-54.27349
2020-11-18 01:24:01+00:00,221.0,7.46,221.0,8.76,12.57,47.59359,-54.27349
2020-11-18 01:34:01+00:00,231.0,10.27,234.0,12.94,12.57,47.59359,-54.27349
2020-11-18 01:44:01+00:00,218.0,4.14,202.0,5.38,12.57,47.59359,-54.27349
2020-11-18 01:54:01+00:00,229.0,4.84,229.0,5.74,12.57,47.59359,-54.27349
2020-11-18 02:04:01+00:00,247.0,4.76,248.0,5.3,12.57,47.59359,-54.27349
2020-11-18 02:14:01+00:00,224.0,4.7,233.0,5.47,12.57,47.59359,-54.27349
2020-11-18 02:24:01+00:00,239.0,4.21,249.0,4.87,12.57,47.59359,-54.27349
2020-11-18 02:34:01+00:00,244.0,7.15,243.0,7.93,12.57,47.59359,-54.27349
2020-11-18 02:44:01+00:00,248.0,5.5,250.0,5.93,12.57,47.59359,-54.27349
2020-11-18 02:54:01+00:00,266.0,4.76,255.0,5.81,12.57,47.59359,-54.27349
2020-11-18 03:04:01+00:00,283.0,4.78,278.0,5.63,12.57,47.59359,-54.27349
2020-11-18 03:14:01+00:00,339.0,4.04,343.0,5.08,12.57,47.59359,-54.27349
2020-11-18 03:24:01+00:00,344.0,3.77,348.0,4.41,12.57,47.59359,-54.27349
2020-11-18 03:34:01+00:00,345.0,3.84,343.0,4.28,12.57,47.59359,-54.27349
2020-11-18 03:44:01+00:00,336.0,2.98,336.0,3.29,12.57,47.59359,-54.27349
2020-11-18 03:54:01+00:00,343.0,2.22,342.0,2.69,12.57,47.59359,-54.27349
2020-11-18 04:04:01+00:00,34.0,1.7,73.0,5.16,12.57,47.59359,-54.27349
2020-11-18 04:14:01+00:00,88.0,4.18,90.0,5.03,12.57,47.59359,-54.27349
2020-11-18 04:24:01+00:00,54.0,0.39,35.0,0.63,12.57,47.59359,-54.27349
2020-11-18 04:34:01+00:00,41.0,2.41,67.0,4.84,12.57,47.59359,-54.27349
2020-11-18 04:44:01+00:00,73.0,5.71,72.0,6.0,12.57,47.59359,-54.27349
2020-11-18 04:54:01+00:00,86.0,5.13,87.0,5.2,12.57,47.59359,-54.27349
2020-11-18 05:04:01+00:00,84.0,5.58,81.0,5.76,12.57,47.59359,-54.27349
2020-11-18 05:14:01+00:00,82.0,5.51,79.0,5.89,12.57,47.59359,-54.27349
2020-11-18 05:24:01+00:00,81.0,4.44,77.0,5.63,12.57,47.59359,-54.27349
2020-11-18 05:34:01+00:00,45.0,1.45,75.0,4.91,12.57,47.59359,-54.27349
2020-11-18 05:44:01+00:00,33.0,1.09,68.0,2.07,12.57,47.59359,-54.27349
2020-11-18 05:54:01+00:00,6.0,2.04,9.0,2.26,12.57,47.59359,-54.27349
2020-11-18 06:04:01+00:00,20.0,2.54,68.0,5.37,12.57,47.59359,-54.27349
2020-11-18 06:14:01+00:00,71.0,5.49,69.0,5.82,12.57,47.59359,-54.27349
2020-11-18 06:24:01+00:00,15.0,2.13,62.0,4.14,12.57,47.59359,-54.27349
2020-11-18 06:34:01+00:00,6.0,2.09,62.0,4.14,12.57,47.59359,-54.27349
2020-11-18 06:44:01+00:00,0.0,2.64,358.0,2.88,12.57,47.59359,-54.27349
2020-11-18 06:54:01+00:00,6.0,3.22,44.0,3.89,12.57,47.59359,-54.27349
2020-11-18 07:04:01+00:00,13.0,3.3,56.0,5.65,12.57,47.59359,-54.27349
2020-11-18 07:14:01+00:00,3.0,3.35,50.0,5.1,12.49,47.59359,-54.27349
2020-11-18 07:24:01+00:00,9.0,3.94,51.0,6.2,12.49,47.59359,-54.27349
2020-11-18 07:34:01+00:00,9.0,3.9,45.0,5.28,12.49,47.59359,-54.27349
2020-11-18 07:44:01+00:00,352.0,3.63,355.0,3.93,12.49,47.59359,-54.27349
2020-11-18 07:54:01+00:00,359.0,3.95,358.0,4.45,12.49,47.59359,-54.27349
2020-11-18 08:04:01+00:00,350.0,4.21,352.0,4.69,12.49,47.59359,-54.27349
2020-11-18 08:14:01+00:00,353.0,2.65,351.0,3.12,12.49,47.59359,-54.27349
2020-11-18 08:24:01+00:00,348.0,2.32,342.0,2.67,12.49,47.59359,-54.27349
2020-11-18 08:34:01+00:00,337.0,3.46,338.0,4.15,12.49,47.59359,-54.27349
2020-11-18 08:44:01+00:00,349.0,3.75,354.0,4.28,12.49,47.59359,-54.27349
2020-11-18 08:54:01+00:00,342.0,4.81,340.0,6.07,12.49,47.59359,-54.27349
2020-11-18 09:04:01+00:00,348.0,4.08,352.0,4.6,12.49,47.59359,-54.27349
2020-11-18 09:14:01+00:00,327.0,5.34,316.0,6.87,12.49,47.59359,-54.27349
2020-11-18 09:24:01+00:00,318.0,6.25,317.0,7.09,12.49,47.59359,-54.27349
2020-11-18 09:34:01+00:00,331.0,2.7,326.0,3.55,12.49,47.59359,-54.27349
2020-11-18 09:44:01+00:00,335.0,2.77,344.0,3.08,12.49,47.59359,-54.27349
2020-11-18 09:54:01+00:00,329.0,2.78,331.0,3.18,12.49,47.59359,-54.27349
2020-11-18 10:04:01+00:00,328.0,2.26,330.0,2.7,12.49,47.59359,-54.27349
2020-11-18 10:14:01+00:00,322.0,3.59,325.0,4.6,12.49,47.59359,-54.27349
2020-11-18 10:24:01+00:00,322.0,3.17,309.0,3.73,12.49,47.59359,-54.27349
2020-11-18 10:34:01+00:00,313.0,5.66,316.0,6.74,12.49,47.59359,-54.27349
2020-11-18 10:44:01+00:00,311.0,4.24,320.0,5.14,12.49,47.59359,-54.27349
2020-11-18 10:54:01+00:00,333.0,3.81,341.0,4.92,12.49,47.59359,-54.27349
2020-11-18 11:04:01+00:00,324.0,3.02,328.0,3.73,12.49,47.59359,-54.27349
2020-11-18 11:14:01+00:00,336.0,2.21,333.0,2.55,12.49,47.59359,-54.27349
2020-11-18 11:24:01+00:00,343.0,2.63,342.0,3.32,12.49,47.59359,-54.27349
2020-11-18 11:34:01+00:00,326.0,2.78,328.0,3.67,12.49,47.59359,-54.27349
2020-11-18 11:44:01+00:00,296.0,1.9,301.0,2.45,12.49,47.59359,-54.27349
2020-11-18 11:54:01+00:00,331.0,1.22,328.0,2.06,12.49,47.59359,-54.27349
2020-11-18 12:04:01+00:00,293.0,2.35,288.0,2.77,12.49,47.59359,-54.27349
2020-11-18 12:14:01+00:00,345.0,3.24,351.0,3.95,13.92,47.59359,-54.27349
2020-11-18 12:24:01+00:00,338.0,2.07,337.0,2.43,13.92,47.59359,-54.27349
2020-11-18 12:34:01+00:00,309.0,1.85,291.0,2.68,13.92,47.59359,-54.27349
2020-11-18 12:44:01+00:00,330.0,2.3,313.0,2.65,13.92,47.59359,-54.27349
2020-11-18 12:54:01+00:00,276.0,2.36,286.0,3.24,13.92,47.59359,-54.27349
2020-11-18 13:04:01+00:00,261.0,2.19,257.0,2.63,13.92,47.59359,-54.27349
2020-11-18 13:14:01+00:00,282.0,2.84,285.0,3.28,13.84,47.59359,-54.27349
2020-11-18 13:24:01+00:00,263.0,1.11,259.0,1.5,13.84,47.59359,-54.27349
2020-11-18 13:34:01+00:00,300.0,2.59,304.0,3.45,13.84,47.59359,-54.27349
2020-11-18 13:44:01+00:00,288.0,4.44,284.0,5.22,13.84,47.59359,-54.27349
2020-11-18 13:54:01+00:00,289.0,4.59,289.0,5.08,13.84,47.59359,-54.27349
2020-11-18 14:04:01+00:00,293.0,4.6,298.0,5.1,13.84,47.59359,-54.27349
2020-11-18 14:14:01+00:00,271.0,4.12,279.0,4.86,13.92,47.59359,-54.27349
2020-11-18 14:24:01+00:00,261.0,5.36,257.0,5.91,13.92,47.59359,-54.27349
2020-11-18 14:34:01+00:00,263.0,5.15,263.0,5.83,13.92,47.59359,-54.27349
2020-11-18 14:44:01+00:00,275.0,6.59,276.0,7.17,13.92,47.59359,-54.27349
2020-11-18 14:54:01+00:00,292.0,7.54,304.0,8.69,13.92,47.59359,-54.27349
2020-11-18 15:04:01+00:00,300.0,8.05,301.0,8.69,13.92,47.59359,-54.27349
2020-11-18 15:14:01+00:00,307.0,6.49,308.0,7.3,14.32,47.59359,-54.27349
2020-11-18 15:24:01+00:00,293.0,8.38,286.0,9.86,14.32,47.59359,-54.27349
2020-11-18 15:34:01+00:00,281.0,8.15,276.0,11.1,14.32,47.59359,-54.27349
2020-11-18 15:44:01+00:00,287.0,7.47,288.0,8.36,14.32,47.59359,-54.27349
2020-11-18 15:54:01+00:00,292.0,6.32,293.0,7.18,14.32,47.59359,-54.27349
2020-11-18 16:04:01+00:00,281.0,8.12,282.0,9.2,14.32,47.59359,-54.27349
2020-11-18 17:14:01+00:00,265.0,7.49,253.0,8.3,14.32,47.59359,-54.27349
2020-11-18 17:24:01+00:00,267.0,7.26,266.0,8.12,14.32,47.59359,-54.27349
2020-11-18 17:34:01+00:00,263.0,7.71,253.0,8.66,14.32,47.59359,-54.27349
2020-11-18 17:44:01+00:00,271.0,7.05,274.0,8.17,14.32,47.59359,-54.27349
2020-11-18 17:54:01+00:00,259.0,5.03,256.0,5.86,14.32,47.59359,-54.27349
2020-11-18 18:04:01+00:00,278.0,7.62,280.0,8.67,14.32,47.59359,-54.27349
2020-11-18 18:14:01+00:00,275.0,7.99,276.0,9.1,13.84,47.59359,-54.27349
2020-11-18 18:24:01+00:00,262.0,9.72,260.0,12.13,13.84,47.59359,-54.27349
2020-11-18 18:34:01+00:00,260.0,7.66,257.0,9.43,13.84,47.59359,-54.27349
2020-11-18 18:44:01+00:00,249.0,9.42,249.0,10.19,13.84,47.59359,-54.27349
2020-11-18 18:54:01+00:00,254.0,9.2,258.0,10.64,13.84,47.59359,-54.27349
2020-11-18 19:04:01+00:00,251.0,9.24,251.0,10.59,13.84,47.59359,-54.27349
2020-11-18 19:14:01+00:00,253.0,7.47,255.0,8.25,13.84,47.59359,-54.27349
2020-11-18 19:24:01+00:00,253.0,8.96,259.0,10.45,13.84,47.59359,-54.27349
2020-11-18 19:34:01+00:00,249.0,9.17,251.0,9.93,13.84,47.59359,-54.27349
2020-11-18 19:44:01+00:00,269.0,7.47,269.0,8.09,13.84,47.59359,-54.27349
2020-11-18 19:54:01+00:00,261.0,7.69,263.0,9.26,13.84,47.59359,-54.27349
2020-11-18 20:04:01+00:00,259.0,7.89,261.0,8.99,13.84,47.59359,-54.27349
2020-11-18 20:14:01+00:00,262.0,7.79,251.0,8.74,13.21,47.59359,-54.27349
2020-11-18 20:24:01+00:00,267.0,8.16,266.0,9.1,13.21,47.59359,-54.27349
2020-11-18 20:34:01+00:00,267.0,7.21,266.0,7.7,13.21,47.59359,-54.27349
2020-11-18 20:44:01+00:00,278.0,7.07,280.0,7.79,13.21,47.59359,-54.27349
2020-11-18 20:54:01+00:00,275.0,5.74,279.0,6.25,13.21,47.59359,-54.27349
2020-11-18 21:04:01+00:00,264.0,5.58,269.0,6.27,13.21,47.59359,-54.27349
2020-11-18 21:14:01+00:00,265.0,5.39,273.0,6.36,12.73,47.59359,-54.27349
2020-11-18 21:24:01+00:00,269.0,5.97,266.0,7.19,12.73,47.59359,-54.27349
2020-11-18 21:34:01+00:00,259.0,5.5,251.0,6.47,12.73,47.59359,-54.27349
2020-11-18 21:44:01+00:00,261.0,4.91,259.0,5.65,12.73,47.59359,-54.27349
2020-11-18 21:54:01+00:00,257.0,5.32,251.0,6.2,12.73,47.59359,-54.27349
2020-11-18 22:04:01+00:00,260.0,5.46,261.0,6.06,12.73,47.59359,-54.27349
2020-11-18 22:14:01+00:00,275.0,6.0,276.0,6.62,12.65,47.59359,-54.27349
2020-11-18 22:24:01+00:00,269.0,5.31,270.0,6.01,12.65,47.59359,-54.27349
2020-11-18 22:34:01+00:00,280.0,4.83,280.0,5.68,12.65,47.59359,-54.27349
2020-11-18 22:44:01+00:00,297.0,4.13,303.0,4.77,12.65,47.59359,-54.27349
2020-11-18 22:54:01+00:00,276.0,3.34,271.0,3.69,12.65,47.59359,-54.27349
2020-11-18 23:04:01+00:00,305.0,2.78,301.0,3.46,12.65,47.59359,-54.27349
2020-11-18 23:14:01+00:00,325.0,1.87,320.0,2.34,12.57,47.59359,-54.27349
2020-11-18 23:24:01+00:00,294.0,2.26,298.0,2.78,12.57,47.59359,-54.27349
2020-11-18 23:34:01+00:00,240.0,1.78,239.0,2.23,12.57,47.59359,-54.27349
2020-11-18 23:44:01+00:00,207.0,2.74,202.0,3.5,12.57,47.59359,-54.27349
2020-11-18 23:54:01+00:00,228.0,2.67,230.0,3.06,12.57,47.59359,-54.27349
